This is the latest recevied weather packets stored in our database for station/object KD0SBN. If no packets are shown the sender has not sent any weather packets the latest 10 day(s).
| Time | Temp. | Humidity | Pressure | Rain* | Wind** | Luminosity | Snow |
|---|---|---|---|---|---|---|---|
| 1777535424 | 5.56° C | 91% | 1020.4 hPa | 1.78 mm | - | - | - |
| 1777535121 | 5.56° C | 91% | 1020.3 hPa | 1.78 mm | - | - | - |
| 1777534818 | 5.56° C | 91% | 1020.1 hPa | 0 mm | - | - | - |
| 1777534515 | 5.56° C | 90% | 1020.6 hPa | 0 mm | - | - | - |
| 1777534212 | 5.56° C | 90% | 1020.3 hPa | 0 mm | - | - | - |
| 1777533910 | 6.11° C | 91% | 1020.5 hPa | 0 mm | - | - | - |
| 1777533607 | 6.11° C | 92% | 1020.4 hPa | 0 mm | - | - | - |
| 1777533302 | 6.67° C | 92% | 1020.4 hPa | 0 mm | - | - | - |
| 1777532999 | 6.67° C | 93% | 1020.5 hPa | 0 mm | - | - | - |
| 1777532696 | 6.67° C | 93% | 1020.5 hPa | 0 mm | - | - | - |
| 1777532393 | 6.11° C | 93% | 1020.7 hPa | 0 mm | - | - | - |
| 1777532089 | 6.11° C | 93% | 1020.5 hPa | 0 mm | - | - | - |
| 1777531784 | 6.11° C | 93% | 1020.6 hPa | 1.78 mm | - | - | - |
| 1777531481 | 6.11° C | 93% | 1020.5 hPa | 1.78 mm | - | - | - |
| 1777531179 | 6.67° C | 94% | 1020.4 hPa | 1.78 mm | - | - | - |
| 1777530877 | 6.67° C | 94% | 1020.5 hPa | 3.56 mm | - | - | - |
| 1777530574 | 6.67° C | 93% | 1020.6 hPa | 3.56 mm | - | - | - |
| 1777530271 | 6.67° C | 93% | 1020.5 hPa | 5.33 mm | - | - | - |
| 1777529967 | 7.22° C | 93% | 1020.5 hPa | 4.32 mm | - | - | - |
| 1777529665 | 7.22° C | 93% | 1020.5 hPa | 6.1 mm | - | - | - |
| 1777529361 | 7.22° C | 93% | 1020.4 hPa | 5.33 mm | - | - | - |
| 1777529058 | 7.22° C | 93% | 1020.3 hPa | 5.33 mm | - | - | - |
| 1777528753 | 7.22° C | 92% | 1020.1 hPa | 3.56 mm | - | - | - |
| 1777528451 | 7.22° C | 92% | 1020 hPa | 1.78 mm | - | - | - |
| 1777528150 | 7.22° C | 92% | 1019.9 hPa | 1.78 mm | - | - | - |
* Rain latest hour (hover to see other rain measurements)
** Current wind speed in m/s (hover to see current wind gust speed)